Погода в Глубоком

Россия / Ростовская область     48°31′31″N   40°19′54″E
темп.,
°C
ветер,
м/с
пор.,
м/с
влажн.,
%
обл.,
%
осадки,
мм/ч
давл.,
гПа
погр.,
м
17 октября, вс
вс1700:00+11всв3558100 0.0 101678
03:00+10св3363100 0.0 101635
06:00+9св3469100 0.0 101670
09:00+12всв3658100 0.0 1016248
12:00+17св4439100 0.0 1015733
15:00+17ссв4437100 0.0 1014871
18:00+13ссв365250 0.0 101587
21:00+11ссв346063 0.0 101565
18 октября, пн
пн1800:00+10с226377 0.0 101520
03:00+9ссз226868 0.0 101520
06:00+9ссз2368100 0.0 101562
09:00+12ссз245986 0.0 1016226
12:00+16сз334574 0.0 10161077
15:00+17зсз554353 0.0 10151422
18:00+12сз485391 0.0 1016150
21:00+10сз345495 0.0 101688
19 октября, вт
вт1900:00+9сз3460100 0.0 101671
03:00+8з3561100 0.0 1016122
06:00+7зсз3763100 0.0 1016184
09:00+9зсз4760100 0.0 1016966
12:00+8зсз5775100 0.1 10161001
15:00+9сз5770100 0.2 1016946
18:00+7сз496875 0.1 1018576
21:00+4зсз337533 0.1 101937
20 октября, ср
ср2000:00+3сз410645 0.0 1020223
03:00+2зсз510765 0.0 1022263
06:00+1сз410845 0.0 1024262
09:00+4сз58695 0.0 1025630
12:00+7сз674577 0.0 10261558
15:00+8сз563894 0.0 10261641
18:00+5сз33485 0.0 102845
21:00+3з225694 0.0 102812
21 октября, чт
чт2100:00+3юз225873 0.0 102812
03:00+2юз2262100 0.0 102719
06:00+2юз2260100 0.0 102721
09:00+6юз36485 0.0 1027255
12:00+12юз673119 0.0 10251024
15:00+13юз67335 0.0 10231179
18:00+9ююз410535 0.0 1023200
21:00+6ююз410535 0.0 1022214